Regional Weather Roundup
Issued by NWS Albany, NY

Home | Current Version | Previous Version | Graphics & Text | Print | Product List | Glossary Off
Versions: 1 2 3 4 5 6 7 8 9 10 11 12 13 14 15 16 17 18 19 20 21 22 23 24 25 26 27 28 29 30 31 32 33 34 35 36 37 38 39 40 41 42 43 44 45 46 47 48 49 50

000
ASUS41 KALY 150710
RWRALY

NEW YORK STATE HOURLY WEATHER ROUNDUP
NATIONAL WEATHER SERVICE ALBANY NY
200 AM EST FRI DEC 15 2017

NOTE: "FAIR" INDICATES FEW OR NO CLOUDS BELOW 12,000 FEET WITH NO
SIGNIFICANT WEATHER AND/OR NO OBSTRUCTIONS TO VISIBILITY.

NYZ032-033-038>043-046>054-057>066-NYZ062>081-082-084-150800-
EAST


CITY           SKY/WX    TMP DP  RH WIND       PRES   REMARKS
ALBANY         MOCLDY    13   5  70 CALM      30.07R
GLENS FALLS    CLEAR     -6  -8  91 CALM      30.04R
POUGHKEEPSIE   PTCLDY     9   3  77 CALM      30.08R
NEWBURGH       CLEAR     14   7  73 W9        30.07R WCI   2
MONTGOMERY     CLOUDY    12   4  70 W7        30.07R WCI   1
WHITE PLAINS   CLEAR     18   5  57 W9        30.07R WCI   7
ISLIP          CLEAR     19   6  57 NW8       30.09R WCI   9
NEW YORK CITY  PTCLDY    23   7  50 NW12      30.11R WCI  12
CENTRAL PARK   CLEAR     22   5  48 W8        30.13R WCI  12
$$

NYZ005>009-017-018-044>046-055-056-150800-
CENTRAL


CITY           SKY/WX    TMP DP  RH WIND       PRES   REMARKS
FULTON         LGT SNOW  20  14  77 SW8       30.02R WCI  10
SYRACUSE       MOCLDY    18  11  74 SW9       30.02R WCI   7
ROME           LGT SNOW  15  12  88 SE3       30.05R FOG
ELMIRA         CLOUDY     5   0  79 CALM      30.04S
BINGHAMTON     CLOUDY     8   3  80 W6        29.96S WCI  -2
MONTICELLO     CLOUDY     7   3  84 NW3       30.00R
$$

NYZ026>034-041>043-087-150800-
NORTH


CITY           SKY/WX    TMP DP  RH WIND       PRES   REMARKS
WATERTOWN      CLEAR      9   5  84 N5        30.02S WCI   1
FORT DRUM      NOT AVBL
OGDENSBURG     FLURRIES  -7 -11  85 CALM      30.02R
MASSENA        CLEAR     -4  -7  87 SW5       30.05R WCI -15
SARANAC LAKE   CLEAR      2  -1  88 SW7       29.87R WCI -11
PLATTSBURGH    CLEAR      9   0  67 CALM      30.01R
$$

NYZ001>004-010>016-019>021-085-150800-
WEST


CITY           SKY/WX    TMP DP  RH WIND       PRES   REMARKS
NIAGARA FALLS  PTCLDY    11   5  77 S5        30.01S WCI   3
BUFFALO        PTCLDY    14   9  80 W8        30.01S WCI   3
DUNKIRK        CLOUDY    22  15  75 S8        30.01F WCI  12
JAMESTOWN      FLURRIES  16  12  84 SW8       29.95F WCI   5
WELLSVILLE     FLURRIES  16   9  74 SW6       29.94S WCI   7
ROCHESTER      PTCLDY    13   9  84 SW8       30.03S WCI   2
PENN YAN       CLEAR     11   7  84 SW6       30.02F WCI   1
$$

             KEY
       WCI = WIND CHILL INDEX
       VSB = VISIBILITY
       HX  = HEAT INDEX
$$



USA.gov is the U.S. government's official web portal to all federal, state and local government web resources and services.